User: anonymous   Login
Location: Bailleul
(50.3375°N, 2.8513°E)
Time: 22:00:18
(UTC+00:00)
Language:

NOAA 16 DEB - Orbit

View from above orbital plane
View from above orbital plane
View from above satellite
View from above satellite

Ground track
Ground track

The orbit data is extracted from the following two-line orbital elements,

1 42426U 00055TW  22028.34322246  .00001167  00000-0  66066-3 0  9990
2 42426  98.6940  73.5590 0015474  85.7609 274.5331 14.11926803281406
Epoch (UTC): 28 January 2022 08:14:14
Eccentricity: 0.0015474
inclination: 98.6940°
perigee height: 841 km
apogee height: 864 km
right ascension of ascending node: 73.5590°
argument of perigee: 85.7609°
revolutions per day: 14.11926803
mean anomaly at epoch: 274.5331°
orbit number at epoch: 28140

The dashed part of the orbit path shows where the satellite is in the earth's shadow,  

DLR